When you browse on this site, cookies collect data to enhance your experience and personalize the content and advertising you see.
Visit our Privacy Policy to learn more. By continuing to use the site, you agree to this use of cookies and data.
  • In Switzerland
  • List of Countries
  • For 7 days
  • Water Temperature
  • Weather Map
  • Weather Widgets
  • user-avatar
    Login

    Hourly Weather Brussels

    Today, 31 May, Sunday

    Time Temperature Precipitation Wind Pressure Humidity
    00:00 +13°C° 0 mm 3 mps 763 mmHg 59%
    01:00 +12°C° 0 mm 3 mps 763 mmHg 62%
    02:00 +12°C° 0 mm 3 mps 763 mmHg 65%
    03:00 +12°C° 0 mm 2 mps 763 mmHg 68%
    04:00 +12°C° 0 mm 3 mps 763 mmHg 68%
    05:00 +13°C° 0 mm 3 mps 763 mmHg 67%
    06:00 +14°C° 0 mm 3 mps 763 mmHg 66%
    07:00 +15°C° 0 mm 4 mps 763 mmHg 61%
    08:00 +17°C° 0 mm 5 mps 763 mmHg 56%
    09:00 +19°C° 0 mm 5 mps 763 mmHg 50%
    10:00 +19°C° 0 mm 6 mps 763 mmHg 47%
    11:00 +20°C° 0 mm 6 mps 763 mmHg 44%
    12:00 +20°C° 0 mm 6 mps 763 mmHg 42%
    13:00 +21°C° 0 mm 6 mps 763 mmHg 42%
    14:00 +21°C° 0 mm 5 mps 763 mmHg 43%
    15:00 +21°C° 0 mm 5 mps 762 mmHg 44%
    16:00 +21°C° 0 mm 5 mps 762 mmHg 49%
    17:00 +20°C° 0 mm 4 mps 762 mmHg 53%
    18:00 +19°C° 0 mm 4 mps 762 mmHg 58%
    19:00 +18°C° 0 mm 4 mps 763 mmHg 61%
    20:00 +15°C° 0 mm 4 mps 763 mmHg 64%
    21:00 +14°C° 0 mm 4 mps 763 mmHg 67%
    22:00 +13°C° 0 mm 4 mps 763 mmHg 70%
    23:00 +13°C° 0 mm 3 mps 763 mmHg 73%

    Tomorrow, 1 June, Monday

    Time Temperature Precipitation Wind Pressure Humidity
    00:00 +12°C° 0 mm 3 mps 763 mmHg 76%
    01:00 +12°C° 0 mm 3 mps 763 mmHg 78%
    02:00 +11°C° 0 mm 3 mps 763 mmHg 79%
    03:00 +11°C° 0 mm 3 mps 763 mmHg 81%
    04:00 +12°C° 0 mm 3 mps 763 mmHg 78%
    05:00 +13°C° 0 mm 4 mps 763 mmHg 76%
    06:00 +14°C° 0 mm 4 mps 763 mmHg 73%
    07:00 +17°C° 0 mm 4 mps 763 mmHg 68%
    08:00 +19°C° 0 mm 5 mps 763 mmHg 63%
    09:00 +20°C° 0 mm 5 mps 763 mmHg 59%
    10:00 +22°C° 0 mm 5 mps 763 mmHg 56%
    11:00 +23°C° 0 mm 5 mps 763 mmHg 53%
    12:00 +25°C° 0 mm 5 mps 762 mmHg 50%
    13:00 +25°C° 0 mm 5 mps 762 mmHg 49%
    14:00 +26°C° 0 mm 4 mps 762 mmHg 48%
    15:00 +26°C° 0 mm 4 mps 762 mmHg 47%
    16:00 +25°C° 0 mm 4 mps 761 mmHg 50%
    17:00 +23°C° 0 mm 4 mps 761 mmHg 54%
    18:00 +22°C° 0 mm 4 mps 761 mmHg 58%
    19:00 +21°C° 0 mm 4 mps 761 mmHg 62%
    20:00 +19°C° 0 mm 4 mps 762 mmHg 66%
    21:00 +18°C° 0 mm 4 mps 762 mmHg 70%
    22:00 +17°C° 0 mm 3 mps 762 mmHg 73%
    23:00 +16°C° 0 mm 3 mps 762 mmHg 77%

    Day after tomorrow, 2 June, Tuesday

    Time Temperature Precipitation Wind Pressure Humidity
    00:00 +16°C° 0 mm 2 mps 761 mmHg 80%
    01:00 +15°C° 0 mm 2 mps 761 mmHg 79%
    02:00 +15°C° 0 mm 2 mps 761 mmHg 77%
    03:00 +15°C° 0 mm 2 mps 761 mmHg 75%
    04:00 +15°C° 0 mm 2 mps 761 mmHg 73%
    05:00 +16°C° 0 mm 2 mps 761 mmHg 72%
    06:00 +17°C° 0 mm 2 mps 761 mmHg 70%
    07:00 +19°C° 0 mm 2 mps 760 mmHg 65%
    08:00 +21°C° 0 mm 2 mps 760 mmHg 59%
    09:00 +24°C° 0 mm 2 mps 760 mmHg 54%
    10:00 +25°C° 0 mm 2 mps 760 mmHg 49%
    11:00 +26°C° 0 mm 2 mps 759 mmHg 45%
    12:00 +27°C° 0 mm 1 mps 759 mmHg 41%
    13:00 +27°C° 0 mm 1 mps 759 mmHg 40%
    14:00 +28°C° 0 mm 1 mps 758 mmHg 39%
    15:00 +28°C° 0 mm 1 mps 757 mmHg 38%
    16:00 +27°C° 0 mm 1 mps 757 mmHg 44%
    17:00 +26°C° 0 mm 2 mps 757 mmHg 50%
    18:00 +25°C° 0 mm 2 mps 756 mmHg 55%
    19:00 +23°C° 0 mm 2 mps 756 mmHg 59%
    20:00 +20°C° 0 mm 2 mps 756 mmHg 63%
    21:00 +18°C° 0 mm 2 mps 756 mmHg 66%
    22:00 +18°C° 0 mm 2 mps 756 mmHg 66%
    23:00 +19°C° 0 mm 1 mps 755 mmHg 66%

    3 June, Wednesday

    Time Temperature Precipitation Wind Pressure Humidity
    00:00 +19°C° 0 mm 1 mps 755 mmHg 66%
    01:00 +19°C° 0 mm 1 mps 755 mmHg 67%
    02:00 +19°C° 0 mm 1 mps 754 mmHg 69%
    03:00 +18°C° 0 mm 1 mps 754 mmHg 70%
    04:00 +19°C° 0.1 mm 1 mps 754 mmHg 71%
    05:00 +19°C° 0.1 mm 1 mps 753 mmHg 72%
    06:00 +19°C° 0.1 mm 1 mps 753 mmHg 73%
    07:00 +21°C° 0.1 mm 1 mps 753 mmHg 69%
    08:00 +22°C° 0.1 mm 1 mps 753 mmHg 64%
    09:00 +23°C° 0.1 mm 1 mps 753 mmHg 60%
    10:00 +24°C° 0.4 mm 1 mps 752 mmHg 55%
    11:00 +26°C° 0.4 mm 1 mps 752 mmHg 51%
    12:00 +27°C° 0.4 mm 1 mps 752 mmHg 46%
    13:00 +26°C° 0.1 mm 1 mps 751 mmHg 46%
    14:00 +26°C° 0.1 mm 1 mps 751 mmHg 47%
    15:00 +26°C° 0.1 mm 2 mps 751 mmHg 47%
    16:00 +25°C° 0.3 mm 2 mps 751 mmHg 54%
    17:00 +24°C° 0.3 mm 3 mps 751 mmHg 62%
    18:00 +21°C° 0.3 mm 3 mps 751 mmHg 69%
    19:00 +20°C° 0.1 mm 3 mps 751 mmHg 75%
    20:00 +18°C° 0.1 mm 3 mps 751 mmHg 81%
    21:00 +17°C° 0.1 mm 3 mps 751 mmHg 88%
    22:00 +16°C° 0 mm 3 mps 751 mmHg 89%
    23:00 +14°C° 0 mm 3 mps 751 mmHg 90%

    4 June, Thursday

    Time Temperature Precipitation Wind Pressure Humidity
    00:00 +14°C° 0 mm 3 mps 751 mmHg 91%
    01:00 +14°C° 0 mm 3 mps 751 mmHg 90%
    02:00 +13°C° 0 mm 3 mps 751 mmHg 88%
    03:00 +13°C° 0 mm 3 mps 751 mmHg 87%
    04:00 +13°C° 0 mm 3 mps 751 mmHg 84%
    05:00 +13°C° 0 mm 4 mps 751 mmHg 82%
    06:00 +14°C° 0 mm 4 mps 751 mmHg 79%
    07:00 +15°C° 0 mm 4 mps 752 mmHg 74%
    08:00 +17°C° 0 mm 4 mps 752 mmHg 68%
    09:00 +18°C° 0 mm 4 mps 752 mmHg 63%
    10:00 +18°C° 0 mm 4 mps 752 mmHg 61%
    11:00 +19°C° 0 mm 5 mps 753 mmHg 59%
    12:00 +19°C° 0 mm 5 mps 753 mmHg 57%
    13:00 +19°C° 0 mm 5 mps 753 mmHg 57%
    14:00 +17°C° 0 mm 5 mps 753 mmHg 58%
    15:00 +17°C° 0 mm 5 mps 753 mmHg 58%
    16:00 +16°C° 0 mm 5 mps 753 mmHg 60%
    17:00 +15°C° 0 mm 4 mps 753 mmHg 61%
    18:00 +15°C° 0 mm 4 mps 753 mmHg 63%
    19:00 +13°C° 0 mm 3 mps 754 mmHg 67%
    20:00 +13°C° 0 mm 2 mps 754 mmHg 71%
    21:00 +10°C° 0 mm 2 mps 754 mmHg 75%
    22:00 +11°C° 0 mm 1 mps 754 mmHg 77%
    23:00 +10°C° 0 mm 1 mps 754 mmHg 79%

    5 June, Friday

    Time Temperature Precipitation Wind Pressure Humidity
    00:00 +9°C° 0 mm 0 mps 754 mmHg 81%
    01:00 +10°C° 0 mm 1 mps 753 mmHg 81%
    02:00 +9°C° 0 mm 1 mps 753 mmHg 81%
    03:00 +8°C° 0 mm 2 mps 753 mmHg 80%
    04:00 +9°C° 0 mm 2 mps 753 mmHg 76%
    05:00 +12°C° 0 mm 2 mps 753 mmHg 72%
    06:00 +12°C° 0 mm 3 mps 753 mmHg 68%
    07:00 +14°C° 0 mm 3 mps 752 mmHg 63%
    08:00 +17°C° 0 mm 4 mps 752 mmHg 59%
    09:00 +19°C° 0 mm 4 mps 752 mmHg 54%
    10:00 +20°C° 0 mm 4 mps 752 mmHg 54%
    11:00 +20°C° 0 mm 5 mps 751 mmHg 54%
    12:00 +21°C° 0 mm 5 mps 751 mmHg 54%
    13:00 +21°C° 0 mm 5 mps 751 mmHg 54%
    14:00 +21°C° 0 mm 5 mps 751 mmHg 53%
    15:00 +21°C° 0 mm 6 mps 751 mmHg 53%
    16:00 +21°C° 0 mm 5 mps 751 mmHg 56%
    17:00 +20°C° 0 mm 5 mps 751 mmHg 59%
    18:00 +19°C° 0 mm 4 mps 751 mmHg 62%
    19:00 +18°C° 0 mm 3 mps 751 mmHg 66%
    20:00 +16°C° 0 mm 3 mps 752 mmHg 71%
    21:00 +15°C° 0 mm 2 mps 753 mmHg 75%
    22:00 +15°C° 0 mm 2 mps 753 mmHg 77%
    23:00 +14°C° 0 mm 1 mps 753 mmHg 80%
    Show more